Flag for Germany Weather past 2 weeks in Singen (Hohentwiel), Baden-Württemberg, Germany

Now
62 °F

Drizzle. Overcast.


Feels Like: 62 °F
Forecast: 51 / 70 °F
Wind: 2 mph from West

Location: Konstanz

Current Time: Sep 1, 2015 at 10:43:14 PM

Latest Report: Sep 1, 2015 at 10:00 PM


Visibility: 34 mi

Pressure: 30.03 "Hg

Humidity: 92%

Dew point: 59 °F

Location of Singen (Hohentwiel)Location

Historic Weather in Singen (Hohentwiel) — Graph

°F

Singen (Hohentwiel) temperature yesterday

Maximum temperature yesterday: 90 °F (at 4:00 PM)
Minimum temperature yesterday: 64 °F (at 7:00 AM)
Average temperature yesterday: 77 °F

Past Weeks' High & Low Weather Summary

 TemperatureHumidityPressure
High92 °F (Aug 29, 5:00 PM)97% (Aug 21, 6:00 AM)30.27 "Hg (Aug 21, 6:00 AM)
Low53 °F (Aug 26, 7:00 AM)27% (Aug 31, 4:00 PM)29.70 "Hg (Aug 24, 8:00 AM)
Average68 °F69%30.01 "Hg
* Reported Aug 17 9:00 PM — Sep 1 9:00 PM, Singen (Hohentwiel), Weather by CustomWeather, © 2015

Note: Actual official high and low records may vary slightly from our data, if they occured in-between our weather recording intervals... More about our weather records

Advertising

Singen (Hohentwiel) weather history for previous 24 hours

 ConditionsComfort  
Time TempWeatherWind HumidityBarometerVisibility
9:00 PM
Tue, Sep 1
62 °FOvercast.3 mph90%30.02 "Hg16 mi
8:00 PM62 °FLight rain. Overcast.3 mph92%29.99 "Hg9 mi
7:00 PM61 °FSprinkles. Overcast.3 mph92%29.97 "Hg4 mi
6:00 PM65 °FLight rain. Overcast.2 mph89%29.93 "Hg11 mi
5:00 PM65 °FLight rain. Overcast.3 mph88%29.92 "Hg9 mi
4:00 PM66 °FSprinkles. Overcast.5 mph85%29.90 "Hg7 mi
3:00 PM72 °FLight rain. Overcast.9 mph59%29.89 "Hg10 mi
2:00 PM75 °FOvercast.6 mph51%29.85 "Hg19 mi
1:00 PM73 °FLight rain. Overcast.5 mph57%29.86 "Hg17 mi
12:00 PM77 °FOvercast.7 mph53%29.84 "Hg14 mi
11:00 AM76 °FScattered clouds.3 mph57%29.81 "Hg12 mi
10:00 AM73 °FPassing clouds.2 mph68%29.80 "Hg16 mi
9:00 AM70 °FPassing clouds.1 mph73%29.82 "Hg16 mi
8:00 AM66 °FScattered clouds.1 mph84%29.84 "Hg12 mi
7:00 AM65 °FPassing clouds.2 mph90%29.85 "Hg11 mi
5:00 AM66 °FClear.2 mph86%29.87 "Hg17 mi
4:00 AM67 °FClear.2 mph82%29.88 "Hg19 mi
3:00 AM67 °FClear.2 mph82%29.89 "Hg19 mi
2:00 AM70 °FClear.2 mph77%29.89 "Hg22 mi
1:00 AM70 °FClear.2 mph75%29.89 "Hg25 mi
11:00 PM
Mon, Aug 31
76 °FClear.1 mph51%29.87 "Hg34 mi
10:00 PM76 °FClear.1 mph51%29.88 "Hg34 mi
Weather by CustomWeather, © 2015

See weather overviewHow to use our weather pages